Location: Bullenkuhlen
(53.7689°N, 9.7495°E)
Time: 16:14:38
(UTC+00:00)

Cosmos 1869 - Pass Details

Date: 09 April 2020
Orbit: 521 x 561 km, 82.5° (Epoch: 25 May)

Event Time Altitude Azimuth Distance (km) Brightness Sun altitude
Exits shadow 22:22:02 45° 356° (N) 755 4.3 -26.9°
Drops below altitude 10° 22:24:55 10° 9° (N) 1,834 6.8 -27.0°
Sets 22:27:07 0° 11° (N) 2,739 7.9 -27.1°
